EZY37M EGSS-EGSS

Flight info

Callsign EZY37M
Flight time N/A
Altitude 3500
Route TOTVO
Aircraft A20N/M-SDE2E3FGHIRWXY/LB1

Departure

Time 2026-05-07 19:54
Airport London Stansted Airport (EGSS)

Arrival

Time N/A
Airport London Stansted Airport (EGSS)
Time Latitude Longitude Altitude Speed Heading
2026-05-07 19:41 51.88563 0.24567 358 ft 0 kts 45°
2026-05-07 19:47 51.88560 0.24561 358 ft 3 kts 45°
2026-05-07 19:47 51.88547 0.24540 361 ft 3 kts 45°
2026-05-07 19:47 51.88534 0.24518 358 ft 3 kts 45°
2026-05-07 19:48 51.88521 0.24498 361 ft 2 kts 18°
2026-05-07 19:48 51.88506 0.24500 358 ft 1 kts 317°
2026-05-07 19:49 51.88506 0.24499 358 ft 1 kts 315°
2026-05-07 19:49 51.88550 0.24370 352 ft 9 kts 277°
2026-05-07 19:50 51.88521 0.24289 352 ft 11 kts 227°
2026-05-07 19:50 51.88397 0.24100 350 ft 35 kts 223°
2026-05-07 19:50 51.88215 0.23828 348 ft 36 kts 223°
2026-05-07 19:50 51.88024 0.23540 354 ft 38 kts 224°
2026-05-07 19:51 51.87831 0.23255 360 ft 23 kts 221°
2026-05-07 19:51 51.87753 0.23132 348 ft 15 kts 227°
2026-05-07 19:51 51.87738 0.23033 352 ft 0 kts 292°
2026-05-07 19:52 51.87741 0.23023 337 ft 5 kts 299°
2026-05-07 19:52 51.87768 0.22968 338 ft 18 kts 312°
2026-05-07 19:52 51.87861 0.22802 336 ft 20 kts 313°
2026-05-07 19:53 51.87952 0.22690 342 ft 11 kts
2026-05-07 19:53 51.87995 0.22716 353 ft 3 kts 41°
2026-05-07 19:53 51.88279 0.23138 346 ft 106 kts 43°
2026-05-07 19:53 51.89061 0.24307 467 ft 186 kts 42°
2026-05-07 19:54 51.90141 0.25916 935 ft 233 kts 43°
2026-05-07 19:54 51.91377 0.27795 1859 ft 240 kts 43°
2026-05-07 19:54 51.92543 0.29577 2529 ft 239 kts 43°
2026-05-07 19:54 51.93922 0.31278 2861 ft 258 kts 25°
2026-05-07 19:55 51.95677 0.31868 2920 ft 260 kts 356°
2026-05-07 19:55 51.97386 0.31023 2919 ft 259 kts 327°
2026-05-07 19:55 51.98607 0.28992 2918 ft 258 kts 299°
2026-05-07 19:55 51.99079 0.26211 2920 ft 258 kts 270°
2026-05-07 19:56 51.98660 0.23413 2918 ft 258 kts 242°
2026-05-07 19:56 51.97654 0.21004 2921 ft 259 kts 232°
2026-05-07 19:56 51.96525 0.18723 2919 ft 259 kts 231°
2026-05-07 19:56 51.95383 0.16462 2918 ft 259 kts 230°
2026-05-07 19:57 51.94117 0.14383 2919 ft 260 kts 222°
2026-05-07 19:57 51.92758 0.12454 2919 ft 260 kts 221°
2026-05-07 19:57 51.91407 0.10574 2919 ft 260 kts 221°
2026-05-07 19:57 51.90037 0.08670 2917 ft 260 kts 221°
2026-05-07 19:58 51.88667 0.06769 2918 ft 260 kts 221°
2026-05-07 19:58 51.87295 0.04866 2919 ft 260 kts 221°
2026-05-07 19:58 51.85939 0.02986 2912 ft 249 kts 221°
2026-05-07 19:58 51.84670 0.01229 2907 ft 231 kts 221°
2026-05-07 19:59 51.83477 -0.00363 2901 ft 215 kts 213°
2026-05-07 19:59 51.82132 -0.01231 2914 ft 207 kts 194°
2026-05-07 19:59 51.80742 -0.01706 2909 ft 198 kts 191°
2026-05-07 19:59 51.79447 -0.02095 2906 ft 188 kts 191°
2026-05-07 20:00 51.78157 -0.02471 2916 ft 188 kts 189°
2026-05-07 20:00 51.76883 -0.02216 2913 ft 187 kts 152°
2026-05-07 20:00 51.76009 -0.00728 2954 ft 186 kts 112°
2026-05-07 20:00 51.75895 0.01342 2939 ft 189 kts 80°
2026-05-07 20:01 51.76230 0.03392 2923 ft 190 kts 72°
2026-05-07 20:01 51.76727 0.05362 2916 ft 190 kts 60°
2026-05-07 20:01 51.77535 0.07035 2920 ft 189 kts 44°
2026-05-07 20:01 51.78491 0.08467 2840 ft 183 kts 41°
2026-05-07 20:02 51.79410 0.09837 2608 ft 177 kts 42°
2026-05-07 20:02 51.80300 0.11176 2366 ft 173 kts 42°
2026-05-07 20:02 51.81168 0.12477 2137 ft 172 kts 42°
2026-05-07 20:02 51.82029 0.13767 1927 ft 167 kts 42°
2026-05-07 20:03 51.82886 0.15052 1687 ft 169 kts 42°
2026-05-07 20:03 51.83745 0.16358 1459 ft 170 kts 43°
2026-05-07 20:03 51.84605 0.17663 1183 ft 169 kts 41°
2026-05-07 20:03 51.85472 0.18958 957 ft 169 kts 42°
2026-05-07 20:04 51.86332 0.20248 714 ft 168 kts 42°
2026-05-07 20:04 51.87197 0.21525 525 ft 167 kts 42°
2026-05-07 20:04 51.88010 0.22744 362 ft 152 kts 43°
2026-05-07 20:04 51.88727 0.23856 352 ft 147 kts 44°
2026-05-07 20:05 51.89642 0.25200 691 ft 199 kts 42°
2026-05-07 20:05 51.90732 0.26841 1480 ft 228 kts 43°
2026-05-07 20:05 51.91945 0.28689 2267 ft 242 kts 43°